W1LBM Weather Reports


time (UTC)temp
C
wind
direction
speed
KPH
gust
KPH
rain 1hr
cm
rain 24hr
cm
rain mn
cm
humidity
%
barometer
mb
20260506231827 13 185 4.8 6.4 0.00 0.10 0.10 99 1010.1
20260506231324 13 178 1.6 3.2 0.00 0.10 0.10 99 1010.2
20260506230822 13 132 0.0 1.6 0.00 0.10 0.10 99 1010.1
20260506230318 13 133 1.6 1.6 0.00 0.10 0.10 99 1010.4
20260506225814 13 153 0.0 0.0 0.00 0.10 0.10 99 1010.3
20260506225312 13 178 1.6 1.6 0.18 0.10 0.10 99 1010.3
20260506224809 13 187 14.5 16.1 0.18 0.10 0.10 99 1010.3
20260506224306 13 160 0.0 0.0 0.00 0.08 0.08 99 1010.3
20260506223802 13 191 6.4 9.7 0.00 0.08 0.08 98 1010.2
20260506223257 13 132 1.6 1.6 0.00 0.08 0.08 98 1010.0
20260506222754 13 170 3.2 4.8 0.00 0.08 0.08 98 1010.0
20260506222250 14 181 0.0 0.0 0.00 0.08 0.08 98 1010.3
20260506221748 14 132 0.0 0.0 0.00 0.08 0.08 98 1010.3
20260506221246 14 140 1.6 1.6 0.00 0.08 0.08 98 1010.2
20260506220743 14 158 0.0 0.0 0.00 0.08 0.08 98 1010.4
20260506220238 14 204 3.2 4.8 0.13 0.08 0.08 98 1010.5
20260506215735 14 172 6.4 9.7 0.13 0.08 0.08 97 1010.7
20260506215230 14 215 4.8 6.4 0.00 0.05 0.05 97 1010.5
20260506214727 15 140 3.2 4.8 0.00 0.05 0.05 96 1010.7
20260506214224 15 189 4.8 6.4 0.00 0.05 0.05 96 1010.5
20260506213722 15 166 1.6 1.6 0.18 0.05 0.05 95 1010.6
20260506213220 15 177 6.4 9.7 0.18 0.05 0.05 94 1010.6
20260506212717 15 180 3.2 3.2 0.18 0.05 0.05 93 1010.7
20260506212212 15 164 0.0 1.6 0.00 0.03 0.03 91 1010.9
20260506211708 15 173 6.4 9.7 0.00 0.03 0.03 91 1010.8
20260506211204 15 196 6.4 9.7 0.00 0.03 0.03 91 1011.0
20260506210701 15 183 0.0 0.0 0.00 0.03 0.03 91 1010.8
20260506210159 15 166 1.6 1.6 0.00 0.03 0.03 92 1010.9
20260506205656 15 203 9.7 14.5 0.00 0.03 0.03 92 1010.8
20260506205156 15 185 4.8 6.4 0.00 0.03 0.03 92 1011.0
20260506204654 15 151 4.8 6.4 0.00 0.03 0.03 92 1011.1
20260506204150 15 168 1.6 3.2 0.00 0.03 0.03 92 1011.2
20260506203648 15 137 6.4 11.3 0.00 0.03 0.03 92 1011.0
20260506203145 15 167 1.6 3.2 0.00 0.03 0.03 92 1011.1
20260506202644 15 158 1.6 1.6 0.00 0.03 0.03 92 1011.1
20260506202139 15 178 4.8 9.7 0.00 0.03 0.03 92 1011.2
20260506201636 15 150 1.6 1.6 0.00 0.03 0.03 93 1011.3
20260506201133 15 171 3.2 4.8 0.00 0.03 0.03 93 1011.2
20260506200629 15 225 9.7 12.9 0.00 0.03 0.03 92 1011.2
20260506200126 15 177 9.7 12.9 0.00 0.03 0.03 93 1011.2
20260506195623 15 160 1.6 1.6 0.00 0.03 0.03 93 1011.5
20260506195119 15 170 3.2 3.2 0.00 0.03 0.03 92 1011.1
20260506194617 15 185 11.3 12.9 0.00 0.03 0.03 91 1011.3
20260506194113 15 194 3.2 3.2 0.13 0.03 0.03 90 1011.2
20260506193611 16 140 3.2 4.8 0.13 0.03 0.03 89 1011.5
20260506193108 16 178 9.7 12.9 0.00 0.00 0.00 86 1011.5
20260506192605 16 171 4.8 4.8 0.00 0.00 0.00 86 1011.4
20260506192100 16 184 3.2 4.8 0.00 0.00 0.00 84 1011.5
20260506191557 16 210 3.2 6.4 0.00 0.00 0.00 83 1011.4
20260506191053 16 189 9.7 12.9 0.00 0.00 0.00 82 1011.5
20260506190550 17 197 8.0 11.3 0.00 0.00 0.00 80 1011.5
20260506190048 17 163 3.2 3.2 0.00 0.00 0.00 79 1011.7
20260506185545 17 178 9.7 11.3 0.00 0.00 0.00 77 1011.5
20260506185041 17 188 11.3 14.5 0.00 0.00 0.00 76 1011.8
20260506184539 17 203 6.4 6.4 0.00 0.00 0.00 75 1011.8
20260506184036 17 170 3.2 6.4 0.00 0.00 0.00 74 1011.7
20260506183531 17 170 3.2 6.4 0.00 0.00 0.00 74 1011.5
20260506183029 18 178 6.4 6.4 0.00 0.00 0.00 74 1011.6
20260506182526 18 144 1.6 3.2 0.00 0.00 0.00 73 1011.7
20260506182023 18 167 4.8 4.8 0.00 0.00 0.00 72 1011.8
20260506181521 18 188 4.8 4.8 0.00 0.00 0.00 72 1011.9
20260506181017 18 139 0.0 1.6 0.00 0.00 0.00 71 1011.9
20260506180514 18 185 3.2 4.8 0.00 0.00 0.00 70 1012.1
20260506180010 18 139 3.2 3.2 0.00 0.00 0.00 70 1011.9
20260506175507 19 137 6.4 6.4 0.00 0.00 0.00 69 1012.1
20260506175003 19 119 3.2 4.8 0.00 0.00 0.00 69 1012.1
20260506174502 19 182 3.2 4.8 0.00 0.00 0.00 68 1012.0
20260506173958 20 163 8.0 11.3 0.00 0.00 0.00 67 1012.1
20260506173456 20 206 12.9 24.1 0.00 0.00 0.00 67 1012.2
20260506172952 20 153 6.4 9.7 0.00 0.00 0.00 67 1012.2
20260506172450 20 100 3.2 3.2 0.00 0.00 0.00 67 1012.3
20260506171946 20 200 14.5 22.5 0.00 0.00 0.00 66 1012.5
20260506171443 20 205 17.7 22.5 0.00 0.00 0.00 66 1012.4
20260506170941 20 165 1.6 4.8 0.00 0.00 0.00 66 1012.5
20260506170438 20 158 6.4 9.7 0.00 0.00 0.00 66 1012.3
20260506165936 20 161 8.0 11.3 0.00 0.00 0.00 65 1012.3
20260506165434 21 162 3.2 6.4 0.00 0.00 0.00 65 1012.2
20260506164930 21 143 1.6 3.2 0.00 0.00 0.00 62 1012.3
20260506164427 21 169 9.7 11.3 0.00 0.00 0.00 62 1012.4
20260506163926 20 176 3.2 6.4 0.00 0.00 0.00 64 1012.4
20260506163425 21 196 3.2 4.8 0.00 0.00 0.00 63 1012.6
20260506162920 21 191 6.4 9.7 0.00 0.00 0.00 63 1012.6
20260506162419 21 226 8.0 11.3 0.00 0.00 0.00 63 1012.9
20260506161916 21 176 11.3 14.5 0.00 0.00 0.00 63 1012.9
20260506161414 21 199 6.4 9.7 0.00 0.00 0.00 63 1012.7
20260506160911 21 194 9.7 12.9 0.00 0.00 0.00 63 1012.9
20260506160408 21 169 1.6 1.6 0.00 0.00 0.00 66 1013.1
20260506155906 21 161 4.8 4.8 0.00 0.00 0.00 64 1012.9
20260506155402 21 182 4.8 6.4 0.00 0.00 0.00 62 1013.1
20260506153519 21 152 4.8 6.4 0.00 0.00 0.00 64 1013.1
20260506153017 21 203 1.6 3.2 0.00 0.00 0.00 62 1013.2
20260506152513 21 168 3.2 4.8 0.00 0.00 0.00 65 1013.3
20260506152012 21 141 6.4 12.9 0.00 0.00 0.00 65 1013.5
20260506151509 21 140 8.0 12.9 0.00 0.00 0.00 64 1013.5
20260506151006 21 238 3.2 4.8 0.00 0.00 0.00 65 1013.4
20260506150502 20 174 8.0 11.3 0.00 0.00 0.00 66 1013.4
20260506145959 20 173 9.7 14.5 0.00 0.00 0.00 67 1013.7
20260506145455 20 189 6.4 14.5 0.00 0.00 0.00 67 1013.5
20260506144953 20 138 0.0 0.0 0.00 0.00 0.00 67 1013.5
20260506144450 20 151 11.3 17.7 0.00 0.00 0.00 67 1013.4
20260506143948 20 177 14.5 22.5 0.00 0.00 0.00 67 1013.6
20260506143444 20 196 8.0 11.3 0.00 0.00 0.00 66 1013.4
20260506142943 20 167 6.4 9.7 0.00 0.00 0.00 66 1013.3
20260506142440 20 196 9.7 14.5 0.00 0.00 0.00 65 1013.4
20260506141939 20 143 6.4 9.7 0.00 0.00 0.00 66 1013.2
20260506141436 20 190 1.6 1.6 0.00 0.00 0.00 65 1013.2
20260506140935 21 119 3.2 4.8 0.00 0.00 0.00 63 1013.3
20260506140431 20 188 1.6 3.2 0.00 0.00 0.00 65 1013.6
20260506135928 20 211 6.4 9.7 0.00 0.00 0.00 66 1013.6
20260506135425 20 152 1.6 1.6 0.00 0.00 0.00 66 1013.2
20260506134921 20 130 1.6 1.6 0.00 0.00 0.00 67 1013.3
20260506134417 20 175 1.6 1.6 0.00 0.00 0.00 68 1013.5
20260506133914 20 207 6.4 9.7 0.00 0.00 0.00 67 1013.5
20260506133411 20 202 3.2 3.2 0.00 0.00 0.00 68 1013.4
20260506132908 20 130 6.4 14.5 0.00 0.00 0.00 68 1013.7
20260506132405 20 158 1.6 3.2 0.00 0.00 0.00 69 1014.0
20260506131903 19 155 0.0 1.6 0.00 0.00 0.00 71 1014.1
20260506131359 19 175 3.2 4.8 0.00 0.00 0.00 70 1014.1
20260506130856 18 199 9.7 12.9 0.00 0.00 0.00 72 1014.0
20260506130352 18 200 6.4 9.7 0.00 0.00 0.00 73 1014.0
20260506125850 18 184 6.4 11.3 0.00 0.00 0.00 73 1014.2
20260506125349 18 172 9.7 14.5 0.00 0.00 0.00 74 1014.0
20260506124847 17 132 1.6 1.6 0.00 0.00 0.00 76 1014.0
20260506124343 17 115 0.0 0.0 0.00 0.00 0.00 76 1013.9
20260506123841 17 167 6.4 9.7 0.00 0.00 0.00 76 1013.9
20260506123339 17 202 6.4 14.5 0.00 0.00 0.00 78 1014.0
20260506122836 17 165 4.8 4.8 0.00 0.00 0.00 79 1014.0
20260506122333 17 191 8.0 9.7 0.00 0.00 0.00 79 1014.1
20260506121831 17 179 4.8 6.4 0.00 0.00 0.00 79 1014.0
20260506121328 17 131 3.2 3.2 0.00 0.00 0.00 80 1013.8
20260506120825 16 178 3.2 3.2 0.00 0.00 0.00 80 1013.9
20260506120323 16 146 1.6 3.2 0.00 0.00 0.00 81 1014.0
20260506115820 16 132 1.6 1.6 0.00 0.00 0.00 81 1014.2
20260506115318 16 164 1.6 3.2 0.00 0.00 0.00 83 1014.4
20260506114816 15 150 0.0 0.0 0.00 0.00 0.00 85 1014.3
20260506114313 15 146 3.2 3.2 0.00 0.00 0.00 85 1014.4
20260506113812 15 179 3.2 4.8 0.00 0.00 0.00 84 1014.3
20260506113309 15 142 3.2 3.2 0.00 0.00 0.00 84 1014.5
20260506112805 16 145 3.2 3.2 0.00 0.00 0.00 84 1014.6
20260506112305 15 139 3.2 3.2 0.00 0.00 0.00 85 1014.5
20260506111800 15 161 1.6 1.6 0.00 0.00 0.00 85 1014.5
20260506111258 16 129 0.0 1.6 0.00 0.00 0.00 84 1014.4
20260506110755 15 151 0.0 0.0 0.00 0.00 0.00 85 1014.2
20260506110252 15 135 0.0 1.6 0.00 0.00 0.00 87 1014.3
20260506105749 14 143 0.0 1.6 0.00 0.00 0.00 89 1014.2
20260506105246 14 136 0.0 0.0 0.00 0.00 0.00 88 1014.4
20260506104743 14 123 0.0 0.0 0.00 0.00 0.00 89 1014.3
20260506104241 14 152 1.6 1.6 0.00 0.00 0.00 88 1014.3
20260506103738 14 135 0.0 1.6 0.00 0.00 0.00 88 1014.3
20260506103235 14 137 0.0 1.6 0.00 0.00 0.00 88 1014.4
20260506102733 14 188 6.4 9.7 0.00 0.00 0.00 88 1014.4
20260506102231 14 144 0.0 0.0 0.00 0.00 0.00 88 1014.1
20260506101727 14 152 3.2 4.8 0.00 0.00 0.00 88 1014.3
20260506101224 14 135 1.6 1.6 0.00 0.00 0.00 88 1014.3
20260506100722 14 138 1.6 3.2 0.00 0.00 0.00 88 1014.2
20260506100220 14 130 0.0 0.0 0.00 0.00 0.00 87 1014.1
20260506095718 14 149 3.2 6.4 0.00 0.00 0.00 87 1014.2
20260506095214 14 147 4.8 6.4 0.00 0.00 0.00 87 1014.1
20260506094712 14 153 1.6 1.6 0.00 0.00 0.00 87 1014.0
20260506094209 14 197 4.8 4.8 0.00 0.00 0.00 87 1013.9
20260506093708 14 183 1.6 1.6 0.00 0.00 0.00 87 1014.1
20260506093204 15 123 1.6 1.6 0.00 0.00 0.00 86 1014.1
20260506092702 15 192 3.2 3.2 0.00 0.00 0.00 86 1014.2
20260506092200 15 141 1.6 1.6 0.00 0.00 0.00 86 1013.9
20260506091657 15 202 6.4 11.3 0.00 0.00 0.00 86 1014.2
20260506091155 15 194 9.7 11.3 0.00 0.00 0.00 85 1014.2
20260506090652 15 152 4.8 4.8 0.00 0.00 0.00 85 1014.1
20260506090149 15 144 1.6 1.6 0.00 0.00 0.00 85 1014.2
20260506085646 15 177 8.0 14.5 0.00 0.00 0.00 85 1014.0
20260506085142 15 190 11.3 14.5 0.00 0.00 0.00 85 1014.2
20260506084638 15 178 6.4 9.7 0.00 0.00 0.00 84 1014.4
20260506084136 15 73 0.0 1.6 0.00 0.00 0.00 84 1014.3
20260506083632 15 176 6.4 9.7 0.00 0.00 0.00 84 1014.4
20260506083130 15 156 3.2 4.8 0.00 0.00 0.00 83 1014.4
20260506082626 15 155 1.6 1.6 0.00 0.00 0.00 83 1014.2
20260506082122 15 196 8.0 9.7 0.00 0.00 0.00 83 1014.1
20260506081621 15 135 3.2 4.8 0.00 0.00 0.00 82 1014.1
20260506081118 15 219 4.8 6.4 0.00 0.00 0.00 82 1014.5
20260506080615 15 178 6.4 9.7 0.00 0.00 0.00 82 1014.2
20260506080112 15 148 4.8 6.4 0.00 0.00 0.00 82 1014.2
20260506073055 16 202 12.9 20.9 0.00 0.00 0.00 80 1014.1
20260506072552 16 133 3.2 3.2 0.00 0.00 0.00 80 1014.2
20260506072050 16 129 1.6 3.2 0.00 0.00 0.00 80 1014.1
20260506071548 16 148 1.6 1.6 0.00 0.00 0.00 80 1014.1
20260506071045 16 180 3.2 3.2 0.00 0.00 0.00 80 1014.2
20260506070542 15 158 3.2 6.4 0.00 0.00 0.00 81 1014.1
20260506062016 16 198 3.2 3.2 0.00 0.00 0.00 79 1014.0
20260506061512 16 202 3.2 3.2 0.00 0.00 0.00 79 1013.9
20260506061010 16 193 3.2 4.8 0.00 0.00 0.00 78 1014.0
20260506060508 16 178 4.8 4.8 0.00 0.00 0.00 78 1014.0
20260506050937 16 154 3.2 3.2 0.00 0.00 0.00 74 1014.6
20260506050435 16 140 0.0 0.0 0.00 0.00 0.00 73 1014.8
20260506044925 16 182 6.4 11.3 0.00 0.00 0.00 72 1014.7
20260506044423 16 143 1.6 1.6 0.00 0.00 0.00 72 1014.6
20260506043920 16 201 3.2 4.8 0.00 0.00 0.00 72 1014.6
20260506043417 16 110 0.0 0.0 0.00 0.00 0.00 72 1014.7
20260506042915 16 105 1.6 1.6 0.00 0.00 0.00 72 1014.7
20260506042414 16 168 4.8 6.4 0.00 0.00 0.00 71 1014.7
20260506041912 17 148 6.4 9.7 0.00 0.00 0.00 71 1014.6
20260506041409 17 193 3.2 4.8 0.00 0.00 0.00 70 1014.8
20260506040906 16 206 4.8 12.9 0.00 0.00 0.00 70 1014.7
20260506040404 16 140 3.2 4.8 0.00 0.00 0.00 70 1014.6
20260506035859 16 161 1.6 3.2 0.00 0.00 0.00 70 1014.5
20260506035357 16 130 1.6 3.2 0.00 0.00 0.00 69 1014.7
20260506034854 16 188 6.4 9.7 0.00 0.00 0.00 69 1014.7
20260506034351 17 130 1.6 3.2 0.00 0.00 0.00 69 1014.6
20260506033848 17 180 1.6 3.2 0.00 0.00 0.00 69 1014.5
20260506033345 17 180 8.0 9.7 0.00 0.00 0.00 68 1014.7
20260506032842 17 182 8.0 11.3 0.00 0.00 0.00 68 1014.4
20260506032339 17 163 3.2 4.8 0.00 0.00 0.00 67 1014.7
20260506031836 17 176 6.4 9.7 0.00 0.00 0.00 68 1014.5
20260506031333 17 243 3.2 3.2 0.00 0.00 0.00 67 1014.5
20260506030831 17 203 11.3 16.1 0.00 0.00 0.00 67 1014.4
20260506030329 17 203 6.4 9.7 0.00 0.00 0.00 67 1014.2
20260506025825 17 157 1.6 3.2 0.00 0.00 0.00 66 1014.3
20260506025321 17 79 1.6 1.6 0.00 0.00 0.00 66 1014.3
20260506024819 17 176 3.2 4.8 0.00 0.00 0.00 66 1014.4
20260506024315 17 155 4.8 4.8 0.00 0.00 0.00 67 1014.5
20260506023811 17 182 6.4 11.3 0.00 0.00 0.00 67 1014.4
20260506023309 17 145 1.6 1.6 0.00 0.00 0.00 67 1014.3
20260506022805 17 169 1.6 1.6 0.00 0.00 0.00 67 1014.4
20260506022305 17 156 3.2 4.8 0.00 0.00 0.00 67 1014.5
20260506021801 17 149 0.0 1.6 0.00 0.00 0.00 67 1014.4
20260506021258 17 178 1.6 3.2 0.00 0.00 0.00 67 1014.3
20260506020754 17 152 4.8 6.4 0.00 0.00 0.00 66 1014.3
20260506020252 17 152 1.6 1.6 0.00 0.00 0.00 66 1014.3
20260506015750 17 190 6.4 9.7 0.00 0.00 0.00 67 1014.2
20260506015247 17 168 1.6 1.6 0.00 0.00 0.00 67 1014.3
20260506014743 17 169 1.6 1.6 0.00 0.00 0.00 67 1014.4
20260506014240 16 134 1.6 3.2 0.00 0.00 0.00 68 1014.3
20260506013737 16 123 4.8 9.7 0.00 0.00 0.00 68 1014.3
20260506013235 16 165 1.6 3.2 0.00 0.00 0.00 68 1014.2
20260506012731 16 190 6.4 9.7 0.00 0.00 0.00 67 1014.2
20260506012228 16 180 4.8 9.7 0.00 0.00 0.00 67 1014.1
20260506011725 17 121 1.6 3.2 0.00 0.00 0.00 66 1014.1
20260506011221 16 170 4.8 6.4 0.00 0.00 0.00 66 1014.1
20260506010720 16 182 4.8 9.7 0.00 0.00 0.00 66 1014.1
20260506010217 16 195 4.8 4.8 0.00 0.00 0.00 66 1014.1
20260506005714 16 150 1.6 3.2 0.00 0.00 0.00 67 1013.9
20260506005210 16 164 4.8 9.7 0.00 0.00 0.00 67 1014.1
20260506004706 16 143 1.6 1.6 0.00 0.00 0.00 67 1014.0
20260506004204 16 180 3.2 3.2 0.00 0.00 0.00 67 1013.8
20260506003700 16 231 6.4 9.7 0.00 0.00 0.00 67 1013.8
20260506003157 16 169 6.4 9.7 0.00 0.00 0.00 68 1013.8
20260506002652 16 140 3.2 4.8 0.00 0.00 0.00 67 1013.7
20260506002149 16 165 1.6 6.4 0.00 0.00 0.00 67 1013.7
20260506001644 16 176 4.8 9.7 0.00 0.00 0.00 67 1013.5
20260506001142 17 138 3.2 3.2 0.00 0.00 0.00 66 1013.5
20260506000639 17 183 12.9 16.1 0.00 0.00 0.00 66 1013.4
20260506000136 17 138 3.2 3.2 0.00 0.00 0.00 66 1013.3
20260505235634 17 143 1.6 3.2 0.00 0.00 0.00 66 1013.2
20260505235131 17 173 9.7 12.9 0.00 0.00 0.00 65 1013.0
20260505234628 17 190 6.4 9.7 0.00 0.00 0.00 65 1013.1
20260505234125 17 142 8.0 12.9 0.00 0.00 0.00 64 1013.2
20260505233622 17 187 3.2 4.8 0.00 0.00 0.00 64 1012.9
20260505233120 18 199 4.8 4.8 0.00 0.00 0.00 63 1012.9
20260505232617 18 205 8.0 11.3 0.00 0.00 0.00 62 1012.8